"startDT [UTC]","vpos","CH4 [ppm]","stdev(CH4) [ppm]","CO2 [ppm]","stdev(CO2) [ppm]","H2O_reported [%]","stdev(H2O_reported)","CavityPressure [torr]","CavityTemp [C]","OutletValve","CH4_dry [ppm]","CO2_dry [ppm]","DasTemp [C]","EtalonTemp [C]","WarmBoxTemp [C]","MPVPosition","T_ECpre [C]","T_EC1 [C]","T_EC2 [C]","p_inlet [hPa]","p_in [hPa]","p_out [hPa]","T_inlet [C]","RH_inlet [%]","dwpt_inlet [C]","T_vent [C]","RH_vent [%]","dwpt_vent [C]","flow_vent [l min-1]","flow_inlet [l min-1]","dwpt_sample [C]","T_room [C]"
2015-09-01 00:00:00,3.0,1.88165,0.02246,395.417,4.216,0.2092,0.3502,139.985,45.000,30870.84464,1.88862,396.338,34.313,45.068,45.000,0.00,0.09,-272.75,-272.80,-10,476,-931,22.5,31.3,4.6,22.5,31.9,4.9,5.73,2.04,1.4,27.1
2015-09-01 00:01:00,3.0,1.87567,0.00035,396.960,0.043,0.0362,0.0015,139.999,45.000,30861.40186,1.87630,397.132,34.343,45.069,45.000,0.00,0.10,-272.75,-272.80,-11,475,-931,22.4,31.3,4.6,22.5,31.9,4.9,5.73,1.95,1.4,27.2
2015-09-01 00:02:00,3.0,1.87588,0.00028,397.174,0.074,0.0327,0.0018,139.998,45.000,30859.08754,1.87647,397.327,34.373,45.069,45.000,0.00,0.10,-272.74,-272.80,-11,475,-931,22.5,31.4,4.7,22.5,32.0,4.9,5.73,1.73,1.4,27.2
2015-09-01 00:03:00,3.0,1.87584,0.00040,397.336,0.043,0.0272,0.0030,140.000,45.000,30857.95029,1.87636,397.465,34.372,45.068,45.000,0.00,0.10,-272.75,-272.80,-10,476,-931,22.5,31.4,4.7,22.5,32.0,5.0,5.73,1.94,1.4,27.2
2015-09-01 00:04:00,3.0,1.87602,0.00026,397.425,0.029,0.0216,0.0024,139.998,45.000,30856.26636,1.87643,397.528,34.373,45.068,45.000,0.00,0.09,-272.75,-272.81,-10,476,-931,22.5,31.4,4.7,22.5,32.0,4.9,5.73,2.07,1.4,27.2
2015-09-01 00:05:00,3.0,1.87599,0.00035,397.484,0.031,0.0172,0.0024,139.998,45.000,30856.09651,1.87628,397.565,34.367,45.068,45.000,0.00,0.10,-272.73,-272.81,-10,476,-931,22.5,31.4,4.7,22.5,32.0,4.9,5.73,1.82,1.4,27.2
2015-09-01 00:06:00,3.0,1.87611,0.00032,397.508,0.033,0.0137,0.0022,139.999,45.000,30854.49754,1.87637,397.574,34.347,45.068,45.000,0.00,0.10,-272.74,-272.80,-11,476,-931,22.5,31.3,4.7,22.5,32.0,5.0,5.73,1.77,1.4,27.3
2015-09-01 00:07:00,3.0,1.87625,0.00045,397.509,0.034,0.0114,0.0020,140.001,45.000,30855.90316,1.87643,397.562,34.333,45.068,45.000,0.00,0.10,-272.75,-272.81,-11,476,-931,22.6,31.4,4.8,22.5,32.1,5.0,5.73,2.00,1.4,27.3
2015-09-01 00:08:00,3.0,1.87636,0.00044,397.532,0.029,0.0097,0.0018,139.998,45.000,30854.11068,1.87653,397.578,34.312,45.068,45.000,0.00,0.10,-272.75,-272.80,-11,477,-931,22.6,31.4,4.8,22.6,32.1,5.1,5.73,2.04,1.4,27.3
2015-09-01 00:09:00,3.0,1.87636,0.00036,397.554,0.037,0.0079,0.0019,140.000,45.000,30856.15400,1.87654,397.593,34.311,45.068,45.000,0.00,0.10,-272.75,-272.81,-10,477,-931,22.7,31.3,4.8,22.6,32.1,5.1,5.73,1.83,1.4,27.2
2015-09-01 00:10:00,3.0,1.87642,0.00038,397.563,0.031,0.0065,0.0021,140.002,45.000,30857.00296,1.87653,397.594,34.303,45.068,45.000,0.00,0.10,-272.74,-272.80,-10,477,-931,22.7,31.4,4.8,22.6,32.2,5.1,5.73,1.76,1.4,27.3
2015-09-01 00:11:00,3.0,1.87644,0.00022,397.578,0.019,0.0062,0.0018,139.997,45.000,30854.44710,1.87656,397.608,34.268,45.068,45.000,0.00,0.10,-272.75,-272.80,-11,478,-930,22.7,31.3,4.9,22.6,32.2,5.2,5.73,1.99,1.4,27.3
2015-09-01 00:12:00,3.0,1.87658,0.00037,397.574,0.032,0.0057,0.0018,140.001,45.000,30856.81359,1.87670,397.600,34.279,45.068,45.000,0.00,0.10,-272.74,-272.80,-12,478,-930,22.7,31.3,4.9,22.6,32.1,5.1,5.73,2.05,1.4,27.2
2015-09-01 00:13:00,3.0,1.87670,0.00028,397.554,0.025,0.0057,0.0028,139.997,45.000,30858.38687,1.87680,397.582,34.313,45.068,45.000,0.00,0.10,-272.74,-272.80,-10,478,-932,22.8,31.3,4.9,22.6,32.2,5.2,5.73,1.80,1.4,27.2
2015-09-01 00:14:00,3.0,1.87679,0.00032,397.580,0.036,0.0046,0.0017,139.998,45.000,30859.72158,1.87686,397.602,34.357,45.068,45.000,0.00,0.10,-272.75,-272.80,-10,479,-931,22.8,31.2,4.9,22.7,32.1,5.2,5.73,1.80,1.4,27.2
2015-09-01 00:15:00,3.0,1.87655,0.00029,397.564,0.036,0.0042,0.0025,139.998,45.000,30865.64313,1.87664,397.584,34.375,45.068,45.000,0.00,0.10,-272.75,-272.80,-10,479,-928,22.8,31.1,4.8,22.7,32.0,5.1,5.73,2.08,1.4,27.3
2015-09-01 00:16:00,3.0,1.87627,0.00038,397.553,0.030,0.0034,0.0021,140.000,45.001,30871.77623,1.87635,397.570,34.388,45.068,45.000,0.00,0.10,-272.74,-272.81,-14,480,-929,22.8,31.1,4.8,22.7,32.0,5.1,5.73,1.92,1.4,27.4
2015-09-01 00:17:00,3.0,1.87631,0.00039,397.549,0.027,0.0034,0.0020,140.000,45.001,30876.68988,1.87639,397.566,34.442,45.069,45.001,0.00,0.10,-272.74,-272.81,-9,481,-931,22.8,31.2,4.9,22.7,32.1,5.1,5.73,1.74,1.4,27.4
2015-09-01 00:18:00,3.0,1.87650,0.00032,397.562,0.034,0.0021,0.0023,139.996,45.001,30879.68940,1.87651,397.572,34.478,45.069,45.001,0.00,0.09,-272.74,-272.80,-11,478,-931,22.8,31.2,4.9,22.7,32.0,5.2,5.73,2.06,1.4,27.3
2015-09-01 00:19:00,3.0,1.87625,0.00047,397.582,0.030,0.0032,0.0015,140.000,45.001,30884.90879,1.87630,397.597,34.500,45.069,45.001,0.00,0.10,-272.74,-272.80,-11,480,-931,22.9,31.1,4.9,22.7,32.0,5.2,5.73,1.96,1.4,27.3
2015-09-01 00:20:00,0.0,1.93884,0.02410,386.571,4.582,0.8885,0.3637,140.009,45.001,30994.69617,1.95349,390.913,34.499,45.069,45.000,0.00,0.10,-272.74,-272.80,-12,494,-931,22.9,31.0,4.9,22.7,32.0,5.2,5.73,1.86,1.4,27.4
2015-09-01 00:21:00,0.0,1.94487,0.00240,384.053,0.098,1.0857,0.0019,140.000,45.000,31011.30168,1.96660,389.250,34.474,45.068,45.000,0.00,0.10,-272.74,-272.81,-13,496,-930,22.9,31.0,4.8,22.7,32.0,5.2,5.73,1.85,1.4,27.3
2015-09-01 00:22:00,0.0,1.94377,0.00225,383.997,0.095,1.0900,0.0028,139.999,45.000,31016.33119,1.96525,389.210,34.438,45.068,45.000,0.00,0.10,-272.74,-272.80,-12,496,-931,22.9,30.9,4.8,22.7,31.9,5.1,5.73,1.97,1.4,27.3
2015-09-01 00:23:00,0.0,1.94372,0.00333,383.948,0.152,1.0935,0.0036,140.000,45.000,31015.86584,1.96549,389.181,34.406,45.068,45.000,0.00,0.10,-272.74,-272.80,-12,496,-930,22.9,30.8,4.8,22.8,31.8,5.1,5.73,2.04,1.4,27.4
2015-09-01 00:24:00,0.0,1.94417,0.00152,384.025,0.062,1.0938,0.0026,140.001,44.999,31019.79396,1.96581,389.255,34.375,45.068,45.000,0.00,0.10,-272.75,-272.81,-12,496,-930,22.9,30.8,4.8,22.8,31.8,5.1,5.73,2.02,1.4,27.4
2015-09-01 00:25:00,0.0,1.94613,0.00077,384.086,0.046,1.0962,0.0021,140.000,44.999,31020.28684,1.96779,389.334,34.370,45.068,45.000,0.00,0.10,-272.74,-272.80,-12,496,-930,23.0,30.8,4.9,22.8,31.8,5.1,5.73,1.91,1.4,27.4
2015-09-01 00:26:00,0.0,1.94675,0.00138,384.050,0.047,1.0984,0.0038,139.998,44.999,31018.86284,1.96861,389.307,34.345,45.068,45.000,0.00,0.10,-272.74,-272.80,-12,496,-930,23.0,30.8,4.8,22.8,31.8,5.1,5.73,1.82,1.4,27.3
2015-09-01 00:27:00,0.0,1.94557,0.00080,383.982,0.042,1.1043,0.0025,139.999,45.000,31021.22113,1.96750,389.267,34.312,45.068,45.000,0.00,0.10,-272.75,-272.80,-12,497,-930,23.0,30.9,4.9,22.8,31.9,5.2,5.73,1.83,1.4,27.3
2015-09-01 00:28:00,0.0,1.94348,0.00126,383.861,0.065,1.1031,0.0032,140.001,45.000,31021.83440,1.96541,389.141,34.308,45.068,45.000,0.00,0.10,-272.75,-272.81,-13,497,-930,23.0,30.8,4.9,22.8,31.9,5.2,5.73,1.95,1.5,27.3
2015-09-01 00:29:00,0.0,1.94261,0.00115,383.811,0.049,1.0997,0.0020,139.996,45.000,31021.23804,1.96436,389.072,34.288,45.068,45.000,0.00,0.10,-272.74,-272.80,-13,497,-930,23.0,30.7,4.8,22.8,31.8,5.2,5.73,2.06,1.4,27.3
2015-09-01 00:30:00,0.0,1.94127,0.00159,383.706,0.058,1.1019,0.0042,140.001,45.000,31022.02285,1.96324,388.980,34.293,45.069,45.000,0.00,0.10,-272.74,-272.80,-13,497,-930,23.0,30.7,4.9,22.9,31.8,5.2,5.73,2.02,1.5,27.3
2015-09-01 00:31:00,0.0,1.94172,0.00107,383.703,0.027,1.1005,0.0027,139.999,45.000,31023.36207,1.96348,388.965,34.319,45.069,45.000,0.00,0.10,-272.74,-272.81,-13,497,-930,23.1,30.7,4.8,22.9,31.7,5.2,5.73,1.87,1.4,27.3
2015-09-01 00:32:00,0.0,1.94241,0.00117,383.621,0.054,1.1054,0.0024,139.998,45.000,31022.11078,1.96432,388.910,34.345,45.068,45.000,0.00,0.10,-272.74,-272.80,-12,497,-930,23.1,30.8,4.9,22.9,31.8,5.2,5.73,1.79,1.5,27.3
2015-09-01 00:33:00,0.0,1.94150,0.00191,383.542,0.040,1.1052,0.0031,139.998,45.000,31024.02414,1.96330,388.825,34.370,45.068,45.000,0.00,0.10,-272.74,-272.79,-12,497,-930,23.0,30.8,4.9,22.9,31.9,5.2,5.73,1.92,1.5,27.4
2015-09-01 00:34:00,0.0,1.94148,0.00280,383.464,0.044,1.1068,0.0032,140.000,45.000,31026.39285,1.96333,388.755,34.375,45.068,45.000,0.00,0.10,-272.75,-272.81,-12,497,-930,23.0,30.8,4.9,22.9,31.8,5.2,5.73,2.07,1.5,27.4
2015-09-01 00:35:00,0.0,1.94316,0.00178,383.462,0.050,1.1102,0.0025,140.000,45.000,31025.60643,1.96516,388.770,34.375,45.068,45.000,0.00,0.10,-272.75,-272.81,-13,497,-930,23.1,30.9,5.0,22.9,31.9,5.3,5.73,2.01,1.4,27.4
2015-09-01 00:36:00,0.0,1.94186,0.00271,383.328,0.051,1.1103,0.0026,139.998,45.000,31027.03017,1.96389,388.635,34.375,45.068,45.000,0.00,0.10,-272.74,-272.80,-13,497,-930,23.1,30.9,5.0,22.9,31.9,5.3,5.73,1.85,1.5,27.4
2015-09-01 00:37:00,0.0,1.94425,0.00171,383.381,0.033,1.1146,0.0033,139.999,45.000,31028.00229,1.96631,388.709,34.375,45.068,45.000,0.00,0.10,-272.74,-272.80,-13,497,-930,23.1,31.0,5.0,22.9,32.0,5.3,5.73,1.80,1.5,27.4
2015-09-01 00:38:00,0.0,1.94359,0.00236,383.370,0.048,1.1148,0.0030,139.998,45.000,31027.07699,1.96575,388.699,34.375,45.068,45.000,0.00,0.10,-272.75,-272.80,-13,497,-930,23.1,30.9,5.0,22.9,32.0,5.3,5.73,1.91,1.5,27.4
2015-09-01 00:39:00,0.0,1.94558,0.00132,383.331,0.030,1.1171,0.0027,139.999,45.000,31027.20670,1.96775,388.671,34.375,45.068,45.000,0.00,0.10,-272.75,-272.79,-12,497,-930,23.1,31.0,5.0,22.9,32.0,5.3,5.73,2.05,1.5,27.4
2015-09-01 00:40:00,0.0,1.94563,0.00114,383.282,0.025,1.1172,0.0023,140.000,45.000,31028.46346,1.96774,388.622,34.376,45.068,45.000,0.00,0.10,-272.75,-272.80,-12,497,-930,23.1,31.0,5.1,22.9,32.1,5.3,5.73,2.03,1.5,27.3
2015-09-01 00:41:00,0.0,1.94684,0.00175,383.234,0.034,1.1211,0.0027,139.999,45.000,31029.08417,1.96900,388.593,34.373,45.068,45.000,0.00,0.10,-272.74,-272.81,-12,497,-930,23.1,31.1,5.1,22.9,32.2,5.4,5.73,1.89,1.5,27.4
2015-09-01 00:42:00,0.0,1.94603,0.00166,383.223,0.048,1.1216,0.0026,139.998,45.000,31028.16371,1.96849,388.585,34.366,45.068,45.000,0.00,0.10,-272.74,-272.80,-12,497,-930,23.1,31.1,5.1,22.9,32.2,5.4,5.73,1.79,1.5,27.4
2015-09-01 00:43:00,0.0,1.94478,0.00163,383.156,0.035,1.1216,0.0030,139.998,45.000,31028.59373,1.96693,388.516,34.337,45.068,45.000,0.00,0.10,-272.74,-272.80,-13,497,-930,23.1,31.1,5.1,22.9,32.2,5.4,5.73,1.88,1.5,27.4
2015-09-01 00:44:00,0.0,1.94553,0.00152,383.166,0.032,1.1217,0.0040,139.999,45.000,31028.50172,1.96787,388.527,34.335,45.068,45.000,0.00,0.10,-272.74,-272.80,-13,497,-930,23.1,31.1,5.0,22.9,32.2,5.4,5.73,2.03,1.5,27.4
2015-09-01 00:45:00,0.0,1.94314,0.00192,383.224,0.036,1.1137,0.0047,139.998,45.000,31028.81025,1.96525,388.544,34.370,45.068,45.000,0.00,0.10,-272.75,-272.81,-13,497,-930,23.1,30.8,4.9,22.9,32.0,5.3,5.73,2.05,1.5,27.4
2015-09-01 00:46:00,0.0,1.94541,0.00239,383.201,0.060,1.1157,0.0051,139.997,45.000,31027.55435,1.96734,388.535,34.376,45.068,45.000,0.00,0.10,-272.73,-272.80,-12,498,-930,23.1,30.9,5.0,22.9,31.9,5.2,5.73,1.90,1.5,27.4
2015-09-01 00:47:00,0.0,1.94530,0.00177,383.133,0.043,1.1191,0.0037,139.999,45.000,31027.41397,1.96767,388.479,34.375,45.068,45.000,0.00,0.10,-272.74,-272.81,-12,498,-930,23.1,31.0,5.0,22.9,32.0,5.3,5.73,1.78,1.5,27.4
2015-09-01 00:48:00,0.0,1.94422,0.00103,383.100,0.044,1.1184,0.0038,139.998,45.000,31028.24699,1.96644,388.446,34.374,45.068,45.000,0.00,0.10,-272.75,-272.81,-12,498,-930,23.1,31.0,5.0,22.8,32.0,5.3,5.73,1.88,1.5,27.4
2015-09-01 00:49:00,0.0,1.94707,0.00150,383.013,0.045,1.1264,0.0036,139.999,45.000,31030.35270,1.96927,388.394,34.329,45.068,45.000,0.00,0.10,-272.74,-272.80,-12,497,-930,23.1,31.2,5.2,22.9,32.2,5.4,5.73,2.04,1.5,27.3
2015-09-01 00:50:00,0.0,1.94759,0.00153,382.973,0.034,1.1267,0.0036,139.998,45.000,31028.05737,1.97011,388.356,34.315,45.068,45.000,0.00,0.10,-272.74,-272.80,-13,497,-930,23.1,31.2,5.1,22.9,32.3,5.4,5.73,2.05,1.5,27.3
2015-09-01 00:51:00,0.0,1.94800,0.00138,382.928,0.041,1.1296,0.0033,139.999,45.000,31029.84520,1.97042,388.326,34.312,45.068,45.000,0.00,0.10,-272.75,-272.81,-13,498,-930,23.1,31.3,5.2,22.9,32.3,5.4,5.73,1.92,1.5,27.3
2015-09-01 00:52:00,0.0,1.94774,0.00230,382.864,0.046,1.1313,0.0048,139.999,45.000,31030.15811,1.97016,388.268,34.312,45.068,45.000,0.00,0.10,-272.74,-272.80,-13,497,-930,23.1,31.3,5.2,22.9,32.3,5.4,5.73,1.79,1.5,27.3
2015-09-01 00:53:00,0.0,1.94801,0.00198,382.825,0.036,1.1334,0.0035,139.999,45.000,31029.79076,1.97057,388.240,34.312,45.068,45.000,0.00,0.10,-272.74,-272.79,-13,498,-930,23.1,31.3,5.2,22.9,32.4,5.5,5.73,1.85,1.5,27.3
2015-09-01 00:54:00,0.0,1.95041,0.00101,382.762,0.038,1.1367,0.0033,139.998,45.000,31027.48414,1.97300,388.191,34.316,45.068,45.000,0.00,0.10,-272.75,-272.80,-12,498,-930,23.1,31.5,5.3,22.9,32.5,5.5,5.73,2.02,1.5,27.3
2015-09-01 00:55:00,0.0,1.95046,0.00240,382.759,0.051,1.1394,0.0053,139.999,45.000,31027.95484,1.97311,388.201,34.331,45.068,45.000,0.00,0.10,-272.75,-272.81,-12,497,-930,23.1,31.6,5.3,22.9,32.6,5.6,5.73,2.06,1.5,27.3
2015-09-01 00:56:00,0.0,1.95172,0.00164,382.666,0.049,1.1446,0.0039,140.000,45.000,31030.01231,1.97451,388.135,34.346,45.068,45.000,0.00,0.10,-272.73,-272.80,-12,498,-930,23.1,31.7,5.4,22.9,32.7,5.6,5.73,1.92,1.5,27.3
2015-09-01 00:57:00,0.0,1.95190,0.00191,382.654,0.048,1.1400,0.0040,139.997,45.000,31028.02794,1.97458,388.099,34.318,45.068,45.000,0.00,0.10,-272.74,-272.80,-13,497,-930,23.1,31.5,5.3,22.9,32.6,5.6,5.73,1.79,1.6,27.3
2015-09-01 00:58:00,0.0,1.95434,0.00243,382.605,0.079,1.1441,0.0045,139.999,45.000,31028.71194,1.97719,388.069,34.313,45.068,45.000,0.00,0.10,-272.74,-272.81,-13,498,-930,23.1,31.6,5.4,22.9,32.7,5.6,5.73,1.85,1.5,27.3
2015-09-01 00:59:00,0.0,1.95205,0.00150,382.721,0.042,1.1347,0.0024,139.999,45.000,31027.61432,1.97470,388.139,34.310,45.068,45.000,0.00,0.10,-272.74,-272.80,-13,498,-930,23.1,31.4,5.2,22.9,32.5,5.5,5.73,2.00,1.5,27.3
2015-09-01 01:00:00,0.0,1.95304,0.00171,382.761,0.060,1.1341,0.0040,140.003,45.000,31026.98731,1.97549,388.178,34.313,45.068,45.000,0.00,0.10,-272.73,-272.80,-13,498,-930,23.1,31.4,5.2,22.9,32.4,5.5,5.73,2.06,1.5,27.3
2015-09-01 01:01:00,0.0,1.95516,0.00154,382.737,0.039,1.1384,0.0040,139.996,45.000,31025.67170,1.97799,388.173,34.326,45.068,45.000,0.00,0.10,-272.74,-272.81,-12,498,-930,23.1,31.5,5.3,22.9,32.5,5.5,5.73,1.94,1.5,27.3
2015-09-01 01:02:00,0.0,1.95515,0.00160,382.765,0.041,1.1354,0.0049,140.000,45.000,31028.23895,1.97765,388.188,34.334,45.068,45.000,0.00,0.10,-272.74,-272.81,-12,498,-930,23.1,31.4,5.2,22.9,32.4,5.5,5.73,1.79,1.6,27.3
2015-09-01 01:03:00,0.0,1.95766,0.00280,382.781,0.039,1.1413,0.0059,139.998,45.000,31029.14937,1.98022,388.232,34.354,45.068,45.000,0.00,0.10,-272.74,-272.80,-12,498,-930,23.1,31.7,5.3,22.9,32.6,5.5,5.73,1.84,1.5,27.4
2015-09-01 01:04:00,0.0,1.96048,0.00195,382.943,0.128,1.1456,0.0062,139.998,45.000,31031.33920,1.98355,388.415,34.340,45.068,45.000,0.00,0.10,-272.75,-272.80,-13,498,-930,23.0,31.8,5.3,22.9,32.8,5.6,5.73,2.02,1.5,27.4
2015-09-01 01:05:00,0.0,1.95848,0.00148,382.996,0.038,1.1400,0.0038,140.002,45.000,31032.69967,1.98138,388.445,34.370,45.068,45.000,0.00,0.10,-272.75,-272.81,-13,498,-930,23.0,31.7,5.3,22.9,32.6,5.6,5.73,2.06,1.5,27.4
2015-09-01 01:06:00,0.0,1.95861,0.00125,383.008,0.037,1.1411,0.0047,139.997,45.000,31030.84327,1.98134,388.463,34.369,45.068,45.000,0.00,0.10,-272.74,-272.80,-13,498,-930,23.0,31.7,5.3,22.9,32.6,5.5,5.73,1.89,1.6,27.4
2015-09-01 01:07:00,0.0,1.95710,0.00125,383.019,0.047,1.1421,0.0039,140.000,45.000,31030.27305,1.97998,388.478,34.375,45.068,45.000,0.00,0.10,-272.74,-272.80,-13,498,-930,23.0,31.7,5.3,22.9,32.7,5.6,5.73,1.78,1.6,27.4
2015-09-01 01:08:00,0.0,1.95754,0.00086,382.952,0.043,1.1442,0.0031,140.001,45.000,31032.85599,1.98045,388.423,34.373,45.068,45.000,0.00,0.10,-272.75,-272.81,-12,498,-930,23.0,31.8,5.3,22.9,32.7,5.6,5.73,1.89,1.6,27.4
2015-09-01 01:09:00,0.0,1.95776,0.00096,382.962,0.046,1.1452,0.0045,139.997,45.000,31031.17103,1.98059,388.436,34.375,45.068,45.000,0.00,0.10,-272.74,-272.80,-12,498,-930,23.0,31.8,5.4,22.9,32.7,5.6,5.73,2.04,1.6,27.4
2015-09-01 01:10:00,0.0,1.95726,0.00128,382.836,0.035,1.1476,0.0045,140.000,45.000,31030.75343,1.98033,388.321,34.366,45.068,45.000,0.00,0.10,-272.73,-272.80,-12,498,-930,23.1,31.8,5.4,22.9,32.9,5.7,5.73,2.04,1.6,27.4
2015-09-01 01:11:00,0.0,1.95291,0.00140,382.928,0.045,1.1308,0.0056,140.001,45.000,31030.05220,1.97554,388.331,34.316,45.068,45.000,0.00,0.10,-272.74,-272.80,-13,498,-930,23.1,31.3,5.1,22.9,32.4,5.5,5.73,1.90,1.6,27.4
2015-09-01 01:12:00,0.0,1.95414,0.00133,382.917,0.051,1.1348,0.0053,140.000,45.000,31027.12479,1.97671,388.339,34.311,45.068,45.000,0.00,0.10,-272.74,-272.81,-13,498,-930,23.1,31.4,5.2,22.9,32.3,5.4,5.73,1.79,1.6,27.4
2015-09-01 01:13:00,0.0,1.95326,0.00131,382.870,0.042,1.1309,0.0034,140.001,45.000,31028.42078,1.97584,388.274,34.300,45.068,45.000,0.00,0.10,-272.74,-272.80,-13,498,-930,23.0,31.4,5.2,22.9,32.3,5.4,5.73,1.85,1.6,27.3
2015-09-01 01:14:00,0.0,1.95251,0.00159,382.840,0.059,1.1289,0.0050,139.999,45.000,31028.77906,1.97504,388.231,34.299,45.068,45.000,0.00,0.10,-272.75,-272.80,-13,498,-930,23.0,31.3,5.1,22.9,32.2,5.4,5.73,2.03,1.6,27.3
2015-09-01 01:15:00,0.0,1.95256,0.00228,382.814,0.045,1.1278,0.0040,139.999,45.000,31030.16453,1.97489,388.201,34.310,45.068,45.000,0.00,0.10,-272.74,-272.81,-12,498,-930,23.0,31.4,5.1,22.9,32.2,5.4,5.73,2.06,1.6,27.3
2015-09-01 01:16:00,0.0,1.95744,0.00192,382.710,0.048,1.1396,0.0042,139.998,45.000,31029.87110,1.98011,388.153,34.314,45.068,45.000,0.00,0.10,-272.74,-272.81,-12,498,-930,23.0,31.7,5.3,22.9,32.5,5.5,5.73,1.90,1.6,27.4
2015-09-01 01:17:00,0.0,1.95762,0.00258,382.679,0.072,1.1415,0.0054,140.001,45.000,31030.13440,1.98059,388.130,34.310,45.068,45.000,0.00,0.10,-272.74,-272.80,-12,498,-930,23.0,31.7,5.3,22.9,32.6,5.6,5.73,1.80,1.6,27.4
2015-09-01 01:18:00,0.0,1.95551,0.00185,382.741,0.045,1.1337,0.0035,139.998,45.000,31029.92533,1.97810,388.156,34.281,45.068,45.000,0.00,0.10,-272.75,-272.80,-13,498,-930,23.0,31.4,5.2,22.9,32.4,5.5,5.73,1.86,1.6,27.4
2015-09-01 01:19:00,0.0,1.95775,0.00251,382.693,0.063,1.1362,0.0047,139.999,45.000,31030.06751,1.98033,388.121,34.266,45.068,45.000,0.00,0.10,-272.75,-272.80,-13,498,-929,23.0,31.5,5.2,22.9,32.4,5.5,5.73,1.99,1.6,27.4
2015-09-01 01:20:00,0.0,1.95631,0.00218,382.682,0.067,1.1377,0.0037,140.001,45.000,31028.34112,1.97938,388.115,34.290,45.068,45.000,0.00,0.10,-272.74,-272.80,-13,498,-930,23.0,31.5,5.2,22.9,32.5,5.5,5.73,2.06,1.6,27.4
2015-09-01 01:21:00,0.0,1.95455,0.00284,382.647,0.045,1.1307,0.0052,139.998,45.000,31026.70551,1.97678,388.048,34.311,45.068,45.000,0.00,0.10,-272.74,-272.81,-13,498,-930,23.0,31.3,5.1,22.9,32.3,5.4,5.73,1.97,1.6,27.4
2015-09-01 01:22:00,0.0,1.95698,0.00241,382.535,0.041,1.1394,0.0051,139.998,45.000,31025.32529,1.97972,387.974,34.315,45.068,45.000,0.00,0.10,-272.74,-272.81,-13,498,-929,23.0,31.6,5.3,22.9,32.5,5.5,5.73,1.82,1.6,27.4
2015-09-01 01:23:00,0.0,1.95534,0.00371,382.493,0.058,1.1428,0.0070,140.000,45.000,31023.41646,1.97859,387.950,34.316,45.068,45.000,0.00,0.10,-272.74,-272.80,-12,498,-929,23.1,31.6,5.3,22.9,32.7,5.6,5.73,1.81,1.6,27.4
2015-09-01 01:24:00,0.0,1.95199,0.00201,382.473,0.056,1.1320,0.0056,139.998,45.000,31026.03048,1.97446,387.877,34.314,45.068,45.000,0.00,0.10,-272.74,-272.80,-12,498,-929,23.1,31.3,5.2,22.9,32.3,5.4,5.73,1.96,1.6,27.3
2015-09-01 01:25:00,0.0,1.95273,0.00109,382.441,0.036,1.1337,0.0039,140.000,45.000,31026.33267,1.97528,387.851,34.325,45.068,45.000,0.00,0.10,-272.75,-272.81,-12,498,-930,23.0,31.4,5.2,22.9,32.4,5.5,5.73,2.08,1.6,27.4
2015-09-01 01:26:00,0.0,1.95177,0.00224,382.420,0.053,1.1339,0.0047,139.998,45.000,31027.69267,1.97448,387.830,34.373,45.068,45.000,0.00,0.10,-272.74,-272.81,-13,498,-930,23.0,31.4,5.2,22.9,32.4,5.5,5.73,1.95,1.6,27.4
2015-09-01 01:27:00,0.0,1.94960,0.00166,382.491,0.042,1.1277,0.0038,139.999,45.001,31027.93173,1.97191,387.872,34.417,45.068,45.000,0.00,0.10,-272.74,-272.81,-13,498,-930,23.0,31.3,5.1,22.9,32.2,5.4,5.73,1.77,1.6,27.4
2015-09-01 01:28:00,0.0,1.95102,0.00232,382.378,0.051,1.1353,0.0056,139.998,45.001,31030.59975,1.97364,387.793,34.439,45.068,45.000,0.00,0.10,-272.74,-272.80,-13,498,-930,22.9,31.6,5.2,22.8,32.4,5.5,5.73,1.89,1.6,27.3
2015-09-01 01:29:00,0.0,1.94965,0.00202,382.433,0.052,1.1334,0.0058,139.996,45.001,31031.70814,1.97216,387.842,34.441,45.068,45.000,0.00,0.10,-272.74,-272.80,-12,498,-930,23.0,31.5,5.1,22.8,32.4,5.5,5.73,2.07,1.6,27.4
2015-09-01 01:30:00,0.0,1.95113,0.00230,382.415,0.055,1.1358,0.0041,139.999,45.000,31031.63857,1.97376,387.834,34.434,45.068,45.000,0.00,0.10,-272.74,-272.80,-12,498,-930,23.0,31.5,5.2,22.8,32.4,5.5,5.73,2.02,1.6,27.4
2015-09-01 01:31:00,0.0,1.95220,0.00143,382.325,0.048,1.1395,0.0039,139.999,45.000,31032.09640,1.97496,387.762,34.393,45.068,45.000,0.00,0.10,-272.75,-272.80,-12,498,-930,23.0,31.7,5.3,22.8,32.6,5.5,5.73,1.87,1.6,27.4
2015-09-01 01:32:00,0.0,1.95199,0.00207,382.308,0.066,1.1367,0.0058,139.998,45.000,31032.74549,1.97470,387.733,34.359,45.068,45.000,0.00,0.10,-272.74,-272.81,-13,498,-930,23.0,31.6,5.2,22.9,32.6,5.6,5.73,1.81,1.6,27.4
2015-09-01 01:33:00,0.0,1.95233,0.00126,382.304,0.039,1.1377,0.0035,139.999,45.000,31032.19323,1.97496,387.731,34.321,45.068,45.000,0.00,0.10,-272.74,-272.80,-13,498,-930,23.0,31.5,5.2,22.9,32.5,5.5,5.73,1.86,1.6,27.4
2015-09-01 01:34:00,0.0,1.95095,0.00108,382.340,0.034,1.1357,0.0031,139.998,45.000,31031.04561,1.97357,387.758,34.313,45.068,45.000,0.00,0.10,-272.74,-272.80,-13,498,-929,23.0,31.4,5.2,22.9,32.5,5.5,5.73,1.98,1.6,27.4
2015-09-01 01:35:00,0.0,1.95228,0.00200,382.327,0.048,1.1413,0.0043,139.997,45.000,31030.29065,1.97485,387.773,34.312,45.068,45.000,0.00,0.10,-272.74,-272.80,-13,498,-930,23.1,31.6,5.3,22.9,32.6,5.5,5.73,2.05,1.6,27.4
2015-09-01 01:36:00,0.0,1.95375,0.00200,382.253,0.050,1.1467,0.0039,139.998,45.000,31031.11757,1.97670,387.725,34.312,45.068,45.000,0.00,0.10,-272.74,-272.80,-13,498,-929,23.0,31.8,5.3,22.9,32.8,5.6,5.73,1.99,1.6,27.4
2015-09-01 01:37:00,0.0,1.95377,0.00139,382.219,0.065,1.1462,0.0042,139.999,45.000,31030.44526,1.97662,387.688,34.321,45.068,45.000,0.00,0.10,-272.74,-272.80,-12,498,-929,23.0,31.8,5.3,22.9,32.8,5.6,5.73,1.83,1.6,27.3
2015-09-01 01:38:00,0.0,1.95478,0.00180,382.169,0.050,1.1493,0.0035,139.998,45.000,31029.77844,1.97771,387.653,34.325,45.068,45.000,0.00,0.10,-272.75,-272.81,-12,498,-929,23.0,31.9,5.3,22.9,32.9,5.7,5.73,1.80,1.6,27.4
2015-09-01 01:39:00,0.0,1.95343,0.00384,382.225,0.089,1.1445,0.0058,139.998,45.000,31029.41742,1.97635,387.684,34.342,45.068,45.000,0.00,0.10,-272.74,-272.80,-12,498,-929,23.0,31.8,5.3,22.9,32.7,5.6,5.73,1.96,1.6,27.4
2015-09-01 01:40:00,0.0,1.95443,0.00267,382.211,0.053,1.1461,0.0041,139.999,45.000,31029.99155,1.97719,387.680,34.373,45.068,45.000,0.00,0.10,-272.74,-272.81,-13,498,-929,23.0,31.9,5.3,22.9,32.8,5.6,5.73,2.08,1.6,27.4
2015-09-01 01:41:00,0.0,1.95351,0.00148,382.248,0.033,1.1440,0.0030,140.002,45.001,31032.63181,1.97652,387.705,34.378,45.068,45.000,0.00,0.10,-272.74,-272.81,-13,498,-929,22.9,31.8,5.3,22.9,32.7,5.6,5.73,1.94,1.7,27.3
2015-09-01 01:42:00,0.0,1.94977,0.00151,382.327,0.048,1.1353,0.0036,139.999,45.001,31034.03310,1.97236,387.743,34.387,45.068,45.000,0.00,0.10,-272.74,-272.81,-13,498,-930,22.9,31.6,5.2,22.9,32.5,5.5,5.73,1.78,1.6,27.4
2015-09-01 01:43:00,0.0,1.95240,0.00192,382.290,0.038,1.1389,0.0034,139.999,45.001,31035.32780,1.97500,387.724,34.385,45.068,45.000,0.00,0.10,-272.74,-272.80,-12,498,-929,22.9,31.7,5.2,22.9,32.6,5.5,5.73,1.86,1.7,27.4
2015-09-01 01:44:00,0.0,1.95173,0.00267,382.315,0.058,1.1367,0.0050,140.001,45.000,31034.58341,1.97438,387.738,34.374,45.068,45.000,0.00,0.10,-272.75,-272.80,-12,498,-930,23.0,31.6,5.2,22.9,32.6,5.5,5.73,2.02,1.7,27.4
2015-09-01 01:45:00,0.0,1.95278,0.00173,382.241,0.033,1.1404,0.0035,139.996,45.000,31034.62579,1.97551,387.681,34.369,45.068,45.000,0.00,0.10,-272.75,-272.80,-12,498,-929,23.0,31.7,5.3,22.9,32.6,5.5,5.73,2.05,1.7,27.4
2015-09-01 01:46:00,0.0,1.95453,0.00241,382.178,0.044,1.1436,0.0040,139.997,45.000,31036.44204,1.97738,387.634,34.331,45.068,45.000,0.00,0.10,-272.74,-272.80,-12,498,-929,23.0,31.7,5.3,22.9,32.7,5.6,5.73,1.94,1.6,27.4